Regional Weather Roundup
Issued by NWS

Home | Current Version | Previous Version | Graphics & Text | Print | Product List | Glossary On
Versions: 1 2 3 4 5 6 7 8 9 10 11 12 13 14 15 16 17 18 19 20 21 22 23 24 25 26 27 28 29 30 31 32 33 34 35 36 37 38 39 40 41 42 43 44 45 46 47 48 49 50
343
ASUS43 KIND 170509
RWRIN

WEATHER ROUNDUP FOR INDIANA
NATIONAL WEATHER SERVICE INDIANAPOLIS IN
1200 AM EST TUE JAN 17 2017

NOTE: "FAIR" INDICATES FEW OR NO CLOUDS BELOW 12,000 FEET WITH NO
SIGNIFICANT WEATHER AND/OR OBSTRUCTIONS TO VISIBILITY.

* - STATION DOES NOT REPORT WEATHER SUCH AS PRECIPITATION OR FOG.

+ - STATION NOT QUALITY CONTROLLED BY THE NATIONAL WEATHER SERVICE.
    USE DATA WITH CAUTION...ESPECIALLY DEWPOINT AND RELATIVE
    HUMIDITY OBSERVATIONS.

INZ001>003-010>013-019-020-170600-
NORTHWEST INDIANA

CITY           SKY/WX    TMP DP  RH WIND       PRES   REMARKS
GARY /AIRPORT/ LGT RAIN  44  44  99 SE9       29.87F
KNOX *+        CLOUDY    43  37  81 SE12      29.90F
LA PORTE +     RAIN      37  37 100 E8        29.91F
MICHIGAN CITY+ LGT RAIN  41  41 100 E6        29.90F
MONTICELLO +   LGT RAIN  49  48  95 SE6       29.90F
RENSSELAER +   LGT RAIN  45  45 100 SE7       29.87F
VALPARAISO     FOG       39  39 100 E8        29.89F VSB 1/4

$$

LMZ046-743>745-170600-
SOUTHERN LAKE MICHIGAN

STATION/POSITION TIME  TEMP    WIND        PRES    WAVE
                       AIR SEA DIR/SP/G            HT
                 (UTC) (F)     (DEG/KT/KT) (MB)    (FT)
BURNS HARBOR     0440   44     140/ 13/ 18 1012.5F
MICHIGAN CITY    0440   42     110/ 14/ 18   N/A

$$

INZ004-005-014>016-021>024-170600-
NORTH CENTRAL INDIANA

CITY           SKY/WX    TMP DP  RH WIND       PRES   REMARKS
GOSHEN         RAIN      39  36  89 SE12      29.93F FOG
LOGANSPORT +   LGT RAIN  46  45  93 SE12      29.93F
PERU/GRISSOM   LGT RAIN  48  48 100 SE7       29.92F
ROCHESTER +    DRIZZLE   46  46 100 SE12      29.93F
SOUTH BEND     LGT RAIN  37  37 100 E10       29.94F VSB 1
WARSAW +       LGT RAIN  41  37  87 SE6       29.94F

$$

INZ006>009-017-018-025>027-170600-
NORTHEAST INDIANA

CITY           SKY/WX    TMP DP  RH WIND       PRES   REMARKS
ANGOLA *+      CLOUDY    37  36  93 SE8       29.98F
AUBURN +       LGT RAIN  36  34  93 E8        30.00F VSB 3/4
FORT WAYNE     HVY RAIN  40  38  93 E12       29.98F VSB 1/2
HUNTINGTON +   LGT RAIN  44  43  96 SE6       29.96F
KENDALLVILLE + RAIN      36  36 100 SE9       29.98F

$$

INZ028-029-035-036-043>045-051>053-170600-
WEST CENTRAL INDIANA

CITY           SKY/WX    TMP DP  RH WIND       PRES   REMARKS
CRAWFORDSVL +  DRIZZLE   50  50 100 SE16      29.91F
GREENCASTLE +  LGT RAIN  52  52 100 SE8       29.93F
LAFAYETTE      LGT RAIN  51  51 100 S6        29.90F
TERRE HAUTE    CLOUDY    55  53  93 S14       29.91F

$$

INZ030>032-037>040-046>048-054>057-064-065-170600-
CENTRAL INDIANA

CITY           SKY/WX    TMP DP  RH WIND       PRES   REMARKS
CP ATTERBURY + LGT RAIN  52  50  93 SE7       29.96F
FISHERS *+     CLOUDY    48  48 100 SE7       29.97F
FRANKFORT +    RAIN      54  52  95 S8        29.94F
GREENWOOD *+   CLOUDY    52  52 100 SE12      29.96F
INDIANAPOLIS   LGT RAIN  51  50  96 NE3       29.97S FOG
-EAGLE CREEK   HVY RAIN  51  49  92 SE10      29.94F FOG
KOKOMO +       LGT RAIN  48  48 100 S14       29.95F FOG
MARION +       LGT RAIN  46  46 100 SE12      29.96F
MT COMFORT *+  CLOUDY    50  48  93 SE8       29.98F
SHELBYVILLE    RAIN      53  50  89 SE12      29.98F FOG
ZIONSVILLE +   HVY RAIN  50  49  98 SE14      29.96F

$$

INZ033-034-041-042-049-050-058-059-170600-
EAST CENTRAL INDIANA

CITY           SKY/WX    TMP DP  RH WIND       PRES   REMARKS
MUNCIE         RAIN      52  50  93 S9        29.98F FOG

$$

INZ060-061-067>069-081>083-085>088-170600-
SOUTHWEST INDIANA

CITY           SKY/WX    TMP DP  RH WIND       PRES   REMARKS
EVANSVILLE     CLOUDY    59  55  87 S6        29.96F
HUNTINGBURG *+ CLOUDY    58  55  90 S10       29.97S
WASHINGTON +   CLOUDY    56  55  94 S14       29.92F

$$

INZ062-063-066-070>080-084-089>092-170600-
SOUTH CENTRAL AND SOUTHEAST INDIANA

CITY           SKY/WX    TMP DP  RH WIND       PRES   REMARKS
BLOOMINGTON    LGT RAIN  54  52  93 S8        29.93F
MADISON *+     CLOUDY    54  52  94 SE9       30.03F
NORTH VERNON + RAIN     N/A N/A N/A SE8       30.00F
SEYMOUR +      CLOUDY    55  55 100 S9        29.98F

$$





USA.gov is the U.S. government's official web portal to all federal, state and local government web resources and services.